Regional Weather Roundup
Issued by NWS

Home | Current Version | Previous Version | Graphics & Text | Print | Product List | Glossary On
Versions: 1 2 3 4 5 6 7 8 9 10 11 12 13 14 15 16 17 18 19 20 21 22 23 24 25 26 27 28 29 30 31 32 33 34 35 36 37 38 39 40 41 42 43 44 45 46 47 48 49 50
000
ASUS45 KBOU 011107
RWRCO

WEATHER ROUNDUP FOR COLORADO
NATIONAL WEATHER SERVICE DENVER/BOULDER CO
500 AM MDT MON SEP 01 2014

NOTE: "FAIR" INDICATES FEW OR NO CLOUDS BELOW 12000 FEET WITH NO
SIGNIFICANT WEATHER AND/OR OBSTRUCTIONS TO VISIBILITY.

COZ001>005-013-030-031-011200-
...NORTHWEST COLORADO...

CITY           SKY/WX    TMP DP  RH WIND       PRES   REMARKS
CRAIG          CLEAR     41  38  89 E3        30.13F
HAYDEN         CLEAR     43  37  81 E9        30.14F
MEEKER         CLEAR     44  38  79 VRB3      30.15F
MOUNT WERNER   NOT AVBL
STEAMBOAT SPGS CLEAR     41  39  95 CALM      30.16S
WALDEN         PTCLDY    41  34  75 S9        30.18S
$$

COZ006>008-011-011200-
...WEST CENTRAL VALLEYS...

CITY           SKY/WX    TMP DP  RH WIND       PRES   REMARKS
GRAND JUNCTION CLEAR     55  39  54 E3        30.02S
MONTROSE       CLEAR     54  36  50 SE12      30.12S
EAGLE          CLEAR     45  41  87 CALM      30.18R
RIFLE          CLEAR     50  43  77 CALM      30.09S
DELTA          CLEAR     56  38  52 E7        30.07S
NUCLA          CLEAR     52  36  54 SE8       30.13S
$$

COZ017>023-064>068-011200-
...SOUTHWEST COLORADO...

CITY           SKY/WX    TMP DP  RH WIND       PRES   REMARKS
DURANGO        CLEAR     48  36  63 CALM      30.13R
CORTEZ         CLEAR     46  39  76 NE7       30.10R
PAGOSA SPRINGS NOT AVBL
TELLURIDE      CLEAR     46  34  61 SE6       30.31S
WOLF CREEK PAS NOT AVBL
$$

COZ009-010-012-014-032>034-037-058>063-011200-
...CENTRAL COLORADO...

CITY           SKY/WX    TMP DP  RH WIND       PRES   REMARKS
ASPEN          CLEAR     43  36  76 S7        30.21R
BUENA VISTA    CLEAR     45  32  61 CALM      30.19R
COPPER MTN     CLEAR     43  27  52 SW12G17   30.40S
BERTHOUD PASS  SNOW      32  30  93 W21G26    30.39F VSB 1/2 WCI  20
COTTONWOOD PAS CLEAR     52  30  43 SE6       30.28R
GUNNISON       CLEAR     43  36  75 N3        30.24R
KREMMLING      PTCLDY    36  34  93 CALM      30.21R
LEADVILLE      CLEAR     43  31  62 NE9       30.29R
MONARCH PASS   CLEAR     37  28  70 W39       30.50S
SALIDA         CLEAR     52  44  73 SE7       30.23S
SUNLIGHT       CLEAR     41  32  70 CALM      30.35S
WILKERSON PASS NOT AVBL
$$

COZ069>075-011200-
...SAN LUIS VALLEY/SANGRE DE CRISTO MOUNTAINS...

CITY           SKY/WX    TMP DP  RH WIND       PRES   REMARKS
ALAMOSA        CLEAR     45  34  65 W7        30.16R
LA VETA PASS   NOT AVBL
SAGUACHE       NOT AVBL
$$

COZ035-036-038>040-011200-
...NORTHERN COLORADO FRONT RANGE...

CITY           SKY/WX    TMP DP  RH WIND       PRES   REMARKS
DENVER INTL AP PTCLDY    52  44  74 S7        30.07S
DMNS CITY PARK   N/A     52  49  88 SE1       30.06S
AURORA         MOCLDY    55  45  69 SW2       30.08F
FRONT RANGE AP NOT AVBL
ERIE MUNI ARPT CLEAR     50  48  93 CALM      30.06S
BOULDER MUN AP CLEAR     52  50  93 CALM      30.06S
CENTENNIAL     MOCLDY    53  46  77 S3        30.08F
BROOMFIELD     MOCLDY    52  46  82 SW5       30.08S
FORT COLLINS   CLEAR     52  46  82 S6        30.07R
LONGMONT       CLEAR     50  47  92 N3        30.07S
$$

COZ041-046-047-076>085-087-088-011200-
...PIKES PEAK/PALMER DIVIDE AND SOUTHERN FOOTHILLS...

CITY           SKY/WX    TMP DP  RH WIND       PRES   REMARKS
COLO. SPRINGS  MOCLDY    57  48  72 SE6       30.11S
A. F. ACADEMY  MOCLDY    49  46  89 N7        30.12R
ELLICOTT       CLEAR     51  45  79 E9        30.10S
FALCON         MOCLDY    53  49  85 CALM      30.15R
FORT CARSON    PTCLDY    54  47  77 SW10      30.08F
LIMON          CLOUDY    53  46  77 W7        30.07S
MONUMENT HILL  CLOUDY    50  46  87 CALM      30.13S
TRINIDAD       CLEAR     51  45  79 W7        30.08R
$$

COZ042>045-048>051-090-091-011200-
...NORTHEAST COLORADO...

CITY           SKY/WX    TMP DP  RH WIND       PRES   REMARKS
GREELEY ARPT   PTCLDY    52  43  71 SW3       30.06R
AKRON          MOCLDY    53  47  79 SW6       30.03S
BURLINGTON     PTCLDY    51  48  89 NW6       30.02R
WRAY             N/A     51  49  93 W5        29.99S
STERLING       MOCLDY    52  50  93 CALM      30.00R
HOLYOKE        PTCLDY    55  48  76 NW6       29.98F
FORT MORGAN    CLOUDY    52  48  85 W6        30.04S
$$

COZ086-089-092>099-011200-
...SOUTHEAST COLORADO...

CITY           SKY/WX    TMP DP  RH WIND       PRES   REMARKS
PUEBLO         MOCLDY    56  48  74 SW5       30.04R
LA JUNTA       CLEAR     56  49  77 N7        30.01S
LAMAR          CLEAR     56  52  86 NW5       29.97R
SPRINGFIELD      N/A     56  51  84 N14       30.00R
$$


USA.gov is the U.S. government's official web portal to all federal, state and local government web resources and services.